Weather observations for the past three days for
Chignik, Chignik Airport
Imperial (Metric)
Date Time (akdt) Wind (mph) Vis. (mi.) Weather Sky Cond. Temperature (ºF) Relative Humidity Wind Chill (°F) Heat Index (°F) Pressure Precipitation (in)
Air Dwpt 6 hour altimeter (in) sea level (mb) 1 hr 3 hr 6 hr
Max. Min.
20 16:57 Calm 10.00 Fair CLR 73 46 38% 30.18 0.0
20 14:57 S 3 0.00 NULL NULL 69.1 45 42% 30.19 0.0
20 13:57 SW 3 10.00 Fair CLR 71.1 46 41% 30.21 1022.9
20 12:57 Calm 10.00 Fair CLR 69.1 43 39% 30.22 1023.3
20 11:57 Calm 10.00 Fair CLR 66.9 43 42% 30.22 1023.4
20 10:57 Calm 10.00 Fair CLR 66.9 46 47% 30.23 1023.7
20 09:57 Calm 10.00 Fair CLR 63 46.9 63 48 56% 30.24 1023.9
20 07:57 Calm 10.00 Fair CLR 54 45 72% 30.24 1024.1
20 06:57 S 3 10.00 Fair CLR 51.1 43 74% 30.24 1024.1
20 04:57 SE 5 10.00 Fair CLR 50 44.1 80% 49 30.25 1024.4
20 03:57 S 3 10.00 Fair CLR 48.9 44.1 60.1 48 83% 30.26 1024.6
20 02:57 S 5 10.00 Fair CLR 48 45 89% 47 30.28 1025.3
20 01:57 Calm 10.00 Fair CLR 50 46 86% 30.28 1025.3
20 00:57 NW 3 10.00 Fair CLR 53.1 46.9 80% 30.27 1025.1
19 23:57 Calm 10.00 Fair CLR 53.1 48 83% 30.26 1024.8
19 22:57 Calm 10.00 Fair CLR 57 48.9 74% 30.26 1024.6
19 21:57 Calm 10.00 Fair CLR 59 50 64 59 72% 30.24 1024.2
19 20:57 N 6 10.00 Fair CLR 63 48 58% 30.24 1024.0
19 19:57 NW 3 10.00 Fair CLR 63 46.9 56% 30.24 1024.0
19 18:57 Calm 10.00 Fair CLR 63 46.9 56% 30.24 1024.0
19 17:57 NW 3 10.00 Fair CLR 63 46.9 56% 30.24 1024.2
19 16:57 N 5 10.00 Fair CLR 63 46.9 56% 30.25 1024.3
19 15:57 N 6 10.00 Fair CLR 63 46.9 63 52 56% 30.25 1024.4
19 14:57 NW 7 10.00 Fair CLR 60.1 48 65% 30.24 1024.2
19 13:57 NW 6 10.00 Fair CLR 60.1 48.9 67% 30.25 1024.4
19 12:57 SW 5 10.00 Fair CLR 59 46.9 64% 30.25 1024.5
19 11:57 Vrbl 3 10.00 Fair CLR 57.9 46.9 67% 30.26 1024.6
19 10:57 SW 8 10.00 Fair CLR 55 45 69% 30.25 1024.3
19 09:57 SW 12 10.00 Fair CLR 52 45 52 48.9 77% 30.25 1024.4
19 08:57 Calm 10.00 Fair CLR 52 44.1 75% 30.25 1024.3
19 06:57 W 5 10.00 Fair CLR 48.9 43 80% 48 30.24 1024.1
19 05:57 SW 9 10.00 Fair CLR 48.9 44.1 83% 45 30.23 1023.9
19 04:57 SW 14 10.00 Fair CLR 50 44.1 80% 45 30.22 1023.4
19 03:57 SW 9 10.00 Fair CLR 51.1 43 55.9 48.9 74% 30.23 1023.6
19 02:57 SW 14 10.00 Fair CLR 51.1 43 74% 30.22 1023.4
19 01:57 W 12 G 18 10.00 Fair CLR 51.1 44.1 77% 30.22 1023.3
19 00:57 W 6 10.00 Fair CLR 51.1 44.1 77% 30.22 1023.3
18 22:57 W 5 10.00 Overcast OVC100 55 44.1 67% 30.18 1022.1
18 21:57 SW 10 10.00 Overcast OVC065 55.9 44.1 59 55.9 65% 30.17 1021.7
18 19:57 SW 6 10.00 Overcast OVC050 59 46 62% 30.15 1020.9
18 18:57 W 7 10.00 Mostly Cloudy BKN037 57.9 45 62% 30.14 1020.6
18 17:57 SW 7 10.00 Overcast SCT034 BKN043 OVC050 57 46 67% 30.13 1020.3
18 16:57 W 7 10.00 Overcast BKN034 OVC050 57 46 67% 30.13 1020.3
18 15:57 W 6 10.00 Overcast SCT036 OVC050 57.9 46 57.9 52 65% 30.12 1020.0
18 14:57 SW 13 10.00 Overcast OVC032 55 45 69% 30.12 1019.9
18 13:57 SW 13 10.00 Overcast BKN036 OVC046 54 45 72% 30.11 1019.6
18 12:57 W 13 10.00 Overcast OVC034 53.1 44.1 72% 30.11 1019.6
18 11:57 W 14 G 18 10.00 Overcast BKN034 OVC049 54 44.1 69% 30.1 1019.3
18 10:57 SW 14 10.00 Overcast SCT038 OVC049 52 43 72% 30.09 1019.0
18 09:57 W 9 G 16 10.00 Mostly Cloudy BKN050 53.1 43 53.1 48.9 69% 30.07 1018.3
18 08:57 SW 13 10.00 Overcast OVC048 51.1 42.1 71% 30.06 1018.0
18 07:57 SW 13 10.00 Overcast OVC046 50 43 77% 46 30.05 1017.5
18 06:57 SW 12 10.00 Overcast BKN035 OVC044 50 44.1 80% 46 30.04 1017.4
18 05:57 SW 9 10.00 Mostly Cloudy FEW039 BKN050 50 43 77% 47 30.03 1016.9
18 04:57 SW 9 10.00 Fair CLR 48.9 43 80% 45 30.02 1016.7
18 03:57 SW 9 10.00 A Few Clouds FEW090 48.9 42.1 51.1 48 77% 45 30.02 1016.7
18 02:57 SW 9 10.00 Overcast OVC090 48.9 42.1 77% 45 30.02 1016.5
18 01:57 W 9 10.00 Mostly Cloudy BKN095 48 42.1 80% 44 30 1016.0
18 00:57 W 8 10.00 Mostly Cloudy FEW020 BKN090 48.9 43 80% 46 30 1015.8
17 23:57 W 7 10.00 Overcast BKN023 BKN031 OVC038 48.9 43 80% 46 29.98 1015.3
17 22:57 W 9 10.00 Overcast BKN021 OVC027 50 44.1 80% 47 29.98 1015.2
17 21:57 W 8 10.00 Overcast OVC026 50 44.1 55 50 80% 47 29.95 1014.4
17 20:57 Vrbl 6 10.00 Overcast OVC018 51.1 46 83% 29.94 1014.0
17 19:57 NW 3 2.00 Light Rain Fog/Mist BKN010 OVC013 51.1 48 89% 29.94 1013.9
17 18:57 N 6 10.00 Overcast OVC017 53.1 48 83% 29.93 1013.6
17 17:59 N 7 10.00 Overcast BKN019 OVC034 54 48 80% 29.93 1013.4
Date Time (akdt) Wind (mph) Vis. (mi.) Weather Sky Cond. Air Dwpt Max. Min. Relative Humidity Wind Chill (°F) Heat Index (°F) altimeter (in) sea level (mb) 1 hr 3 hr 6 hr
6 hour
Temperature (ºF) Pressure Precipitation (in)